| time (UTC) | temp F | wind direction | speed MPH | gust MPH | rain 1hr in | rain 24hr in | rain mn in | humidity % | barometer mb |
| 20260901120034 | 77 | 290 | 1.0 | 4.0 | 0.00 | 0.00 | 0.00 | 87 | 1015.4 |
| 20260901114552 | 77 | 231 | 0.0 | 0.0 | 0.00 | 0.00 | 0.00 | 90 | 1015.5 |
| 20260901113035 | 76 | 214 | 0.0 | 0.0 | 0.00 | 0.00 | 0.00 | 90 | 1015.4 |
| 20260901111542 | 75 | 245 | 0.0 | 0.0 | 0.00 | 0.00 | 0.00 | 90 | 1015.2 |
| 20260901110035 | 75 | 181 | 0.0 | 0.0 | 0.00 | 0.00 | 0.00 | 90 | 1014.9 |
| 20260901104534 | 75 | 214 | 0.0 | 0.0 | 0.00 | 0.00 | 0.00 | 90 | 1014.7 |
| 20260901103037 | 75 | 214 | 0.0 | 0.0 | 0.00 | 0.00 | 0.00 | 90 | 1014.7 |
| 20260901101538 | 75 | 186 | 0.0 | 1.0 | 0.00 | 0.00 | 0.00 | 90 | 1014.7 |
| 20260901100037 | 76 | 121 | 0.0 | 0.0 | 0.00 | 0.00 | 0.00 | 90 | 1014.7 |
| 20260901094534 | 76 | 121 | 0.0 | 0.0 | 0.00 | 0.00 | 0.00 | 90 | 1014.7 |
| 20260901093041 | 76 | 226 | 0.0 | 0.0 | 0.00 | 0.00 | 0.00 | 90 | 1014.7 |
| 20260901091543 | 76 | 13 | 0.0 | 0.0 | 0.00 | 0.00 | 0.00 | 89 | 1014.7 |
| 20260901090035 | 76 | 174 | 0.0 | 0.0 | 0.00 | 0.00 | 0.00 | 88 | 1014.7 |
| 20260901084534 | 77 | 174 | 0.0 | 0.0 | 0.00 | 0.00 | 0.00 | 87 | 1014.7 |
| 20260901083039 | 77 | 174 | 0.0 | 0.0 | 0.00 | 0.00 | 0.00 | 87 | 1015.0 |
| 20260901081542 | 77 | 174 | 0.0 | 0.0 | 0.00 | 0.00 | 0.00 | 87 | 1015.0 |
| 20260901080038 | 77 | 201 | 0.0 | 0.0 | 0.00 | 0.00 | 0.00 | 87 | 1015.0 |
| 20260901074550 | 77 | 257 | 0.0 | 0.0 | 0.00 | 0.00 | 0.00 | 86 | 1015.2 |
| 20260901073038 | 78 | 257 | 0.0 | 0.0 | 0.00 | 0.00 | 0.00 | 86 | 1015.4 |
| 20260901071537 | 78 | 257 | 0.0 | 0.0 | 0.00 | 0.00 | 0.00 | 86 | 1015.2 |
| 20260901070042 | 78 | 273 | 0.0 | 4.0 | 0.00 | 0.00 | 0.00 | 86 | 1015.4 |
| 20260901064541 | 78 | 226 | 0.0 | 4.0 | 0.00 | 0.00 | 0.00 | 85 | 1015.4 |
| 20260901063043 | 78 | 200 | 0.0 | 4.0 | 0.00 | 0.00 | 0.00 | 85 | 1015.5 |
| 20260901061543 | 78 | 175 | 0.0 | 0.0 | 0.00 | 0.00 | 0.00 | 86 | 1015.7 |
| 20260901060044 | 78 | 221 | 0.0 | 4.0 | 0.00 | 0.00 | 0.00 | 86 | 1015.7 |
| 20260901054542 | 78 | 239 | 2.0 | 3.0 | 0.00 | 0.00 | 0.00 | 86 | 1015.9 |
| 20260901053050 | 78 | 248 | 1.0 | 4.0 | 0.00 | 0.00 | 0.00 | 86 | 1016.0 |
| 20260901051553 | 78 | 277 | 0.0 | 0.0 | 0.00 | 0.00 | 0.00 | 85 | 1016.2 |
| 20260901050048 | 79 | 277 | 0.0 | 0.0 | 0.00 | 0.00 | 0.00 | 85 | 1016.2 |
| 20260901044543 | 79 | 309 | 1.0 | 3.0 | 0.00 | 0.00 | 0.00 | 83 | 1016.4 |
| 20260901043042 | 80 | 238 | 2.0 | 4.0 | 0.00 | 0.00 | 0.00 | 82 | 1016.4 |
| 20260901041543 | 80 | 246 | 0.0 | 0.0 | 0.00 | 0.00 | 0.00 | 81 | 1016.4 |
| 20260901040108 | 81 | 146 | 0.0 | 0.0 | 0.00 | 0.00 | 0.00 | 80 | 1016.5 |
| 20260901034542 | 81 | 150 | 0.0 | 0.0 | 0.00 | 0.00 | 0.00 | 80 | 1016.5 |
| 20260901033053 | 81 | 176 | 0.0 | 0.0 | 0.00 | 0.00 | 0.00 | 79 | 1016.4 |
| 20260901031549 | 82 | 194 | 0.0 | 4.0 | 0.00 | 0.00 | 0.00 | 79 | 1016.3 |
| 20260901030046 | 82 | 138 | 0.0 | 4.0 | 0.00 | 0.00 | 0.00 | 77 | 1016.2 |
| 20260901024543 | 82 | 138 | 0.0 | 0.0 | 0.00 | 0.00 | 0.00 | 76 | 1016.2 |
| 20260901023053 | 82 | 166 | 0.0 | 0.0 | 0.00 | 0.00 | 0.00 | 76 | 1016.2 |
| 20260901021549 | 83 | 165 | 0.0 | 0.0 | 0.00 | 0.00 | 0.00 | 75 | 1016.5 |
| 20260901020050 | 83 | 153 | 2.0 | 4.0 | 0.00 | 0.00 | 0.00 | 74 | 1016.2 |
| 20260901014547 | 84 | 139 | 0.0 | 3.0 | 0.00 | 0.00 | 0.00 | 74 | 1016.3 |
| 20260901013107 | 84 | 169 | 0.0 | 0.0 | 0.00 | 0.00 | 0.00 | 74 | 1016.3 |
| 20260901011548 | 84 | 183 | 0.0 | 0.0 | 0.00 | 0.00 | 0.00 | 73 | 1016.0 |
| 20260901010048 | 84 | 107 | 0.0 | 0.0 | 0.00 | 0.00 | 0.00 | 73 | 1016.2 |
| 20260901004545 | 84 | 150 | 0.0 | 3.0 | 0.00 | 0.00 | 0.00 | 72 | 1016.1 |
| 20260901003042 | 85 | 151 | 1.0 | 5.0 | 0.00 | 0.00 | 0.00 | 72 | 1016.1 |
| 20260901001547 | 85 | 163 | 2.0 | 7.0 | 0.00 | 0.00 | 0.00 | 71 | 1016.0 |
| 20260901000056 | 85 | 118 | 0.0 | 6.0 | 0.00 | 0.00 | 0.00 | 70 | 1016.1 |
| 20260831234555 | 86 | 97 | 1.0 | 4.0 | 0.00 | 0.00 | 0.00 | 70 | 1016.0 |
| 20260831233058 | 86 | 109 | 0.0 | 0.0 | 0.00 | 0.00 | 0.00 | 70 | 1016.1 |
| 20260831231553 | 86 | 90 | 0.0 | 0.0 | 0.00 | 0.00 | 0.00 | 70 | 1016.2 |
| 20260831230050 | 86 | 74 | 2.0 | 5.0 | 0.00 | 0.00 | 0.00 | 70 | 1016.3 |
| 20260831224550 | 86 | 92 | 0.0 | 7.0 | 0.00 | 0.00 | 0.00 | 71 | 1016.3 |
| 20260831223050 | 86 | 26 | 3.0 | 5.0 | 0.00 | 0.00 | 0.00 | 72 | 1016.3 |
| 20260831221541 | 86 | 19 | 3.0 | 5.0 | 0.00 | 0.00 | 0.00 | 70 | 1016.2 |
| 20260831220053 | 86 | 22 | 2.0 | 6.0 | 0.00 | 0.00 | 0.00 | 69 | 1016.5 |
| 20260831214550 | 87 | 56 | 3.0 | 6.0 | 0.00 | 0.00 | 0.00 | 68 | 1016.4 |
| 20260831213048 | 88 | 331 | 2.0 | 6.0 | 0.00 | 0.00 | 0.00 | 67 | 1016.2 |
| 20260831211542 | 88 | 319 | 3.0 | 6.0 | 0.00 | 0.00 | 0.00 | 67 | 1016.2 |
| 20260831210052 | 88 | 5 | 0.0 | 5.0 | 0.00 | 0.00 | 0.00 | 66 | 1016.3 |
| 20260831204550 | 88 | 28 | 4.0 | 6.0 | 0.00 | 0.00 | 0.00 | 64 | 1016.5 |
| 20260831203105 | 89 | 49 | 2.0 | 4.0 | 0.00 | 0.00 | 0.00 | 64 | 1016.5 |
| 20260831201550 | 89 | 352 | 1.0 | 5.0 | 0.00 | 0.00 | 0.00 | 65 | 1016.4 |
| 20260831200136 | 89 | 44 | 2.0 | 10.0 | 0.00 | 0.00 | 0.00 | 65 | 1016.7 |
| 20260831194556 | 89 | 55 | 2.0 | 6.0 | 0.00 | 0.00 | 0.00 | 66 | 1016.7 |
| 20260831193048 | 88 | 24 | 2.0 | 5.0 | 0.00 | 0.00 | 0.00 | 66 | 1016.8 |
| 20260831191556 | 88 | 23 | 2.0 | 5.0 | 0.00 | 0.00 | 0.00 | 65 | 1017.0 |
| 20260831190053 | 89 | 24 | 4.0 | 8.0 | 0.00 | 0.00 | 0.00 | 64 | 1016.9 |
| 20260831184552 | 89 | 34 | 3.0 | 7.0 | 0.00 | 0.00 | 0.00 | 63 | 1016.9 |
| 20260831183048 | 89 | 290 | 1.0 | 5.0 | 0.00 | 0.00 | 0.00 | 63 | 1016.9 |
| 20260831181552 | 89 | 112 | 5.0 | 8.0 | 0.00 | 0.00 | 0.00 | 62 | 1017.2 |
| 20260831180116 | 88 | 272 | 3.0 | 7.0 | 0.00 | 0.00 | 0.00 | 63 | 1017.5 |
| 20260831174551 | 88 | 160 | 5.0 | 10.0 | 0.00 | 0.00 | 0.00 | 64 | 1017.3 |
| 20260831173106 | 87 | 126 | 1.0 | 5.0 | 0.00 | 0.00 | 0.00 | 66 | 1017.5 |
| 20260831171554 | 88 | 85 | 2.0 | 8.0 | 0.00 | 0.00 | 0.00 | 66 | 1017.9 |
| 20260831170111 | 87 | 35 | 3.0 | 7.0 | 0.00 | 0.00 | 0.00 | 66 | 1017.7 |
| 20260831164547 | 87 | 57 | 0.0 | 7.0 | 0.00 | 0.00 | 0.00 | 67 | 1018.3 |
| 20260831163054 | 87 | 65 | 3.0 | 7.0 | 0.00 | 0.00 | 0.00 | 67 | 1018.4 |
| 20260831161554 | 86 | 355 | 0.0 | 8.0 | 0.00 | 0.00 | 0.00 | 69 | 1018.3 |
| 20260831160055 | 86 | 80 | 4.0 | 8.0 | 0.00 | 0.00 | 0.00 | 69 | 1018.2 |
| 20260831154621 | 84 | 37 | 4.0 | 9.0 | 0.00 | 0.00 | 0.00 | 71 | 1018.0 |
| 20260831153058 | 84 | 326 | 4.0 | 10.0 | 0.00 | 0.00 | 0.00 | 72 | 1018.0 |
| 20260831151552 | 84 | 52 | 2.0 | 6.0 | 0.00 | 0.00 | 0.00 | 72 | 1017.9 |
| 20260831150051 | 83 | 35 | 4.0 | 9.0 | 0.00 | 0.00 | 0.00 | 73 | 1017.9 |
| 20260831144535 | 83 | 51 | 4.0 | 9.0 | 0.00 | 0.00 | 0.00 | 76 | 1017.9 |
| 20260831143040 | 82 | 112 | 1.0 | 8.0 | 0.00 | 0.00 | 0.00 | 76 | 1017.7 |
| 20260831141539 | 81 | 55 | 2.0 | 6.0 | 0.00 | 0.00 | 0.00 | 78 | 1017.8 |
| 20260831140038 | 81 | 44 | 2.0 | 5.0 | 0.00 | 0.00 | 0.00 | 79 | 1017.7 |
| 20260831134539 | 79 | 360 | 3.0 | 8.0 | 0.00 | 0.00 | 0.00 | 81 | 1017.8 |
| 20260831133034 | 78 | 103 | 1.0 | 4.0 | 0.00 | 0.00 | 0.00 | 82 | 1017.7 |
| 20260831131535 | 77 | 316 | 0.0 | 6.0 | 0.00 | 0.00 | 0.00 | 86 | 1017.6 |
| 20260831130033 | 76 | 324 | 2.0 | 5.0 | 0.00 | 0.00 | 0.00 | 89 | 1017.8 |
| 20260831124538 | 75 | 340 | 0.0 | 3.0 | 0.00 | 0.00 | 0.00 | 91 | 1018.0 |
| 20260831123037 | 74 | 297 | 0.0 | 4.0 | 0.00 | 0.00 | 0.00 | 92 | 1017.8 |
| 20260831121537 | 73 | 5 | 1.0 | 8.0 | 0.00 | 0.00 | 0.00 | 93 | 1017.4 |